Time,TemperatureF,DewpointF,PressureIn,WindDirection,WindDirectionDegrees,WindSpeedMPH,WindSpeedGustMPH,Humidity,HourlyPrecipIn,Conditions,Clouds,dailyrainin,SoftwareType,DateUTC
2013-09-08 00:14:00,74.8,68.2,29.70,South,180,2.7,-999.0,80,-99.99,,,0.00,Acu-Link.com,2013-09-08 04:14:00,
2013-09-08 00:29:00,74.7,68.5,29.70,SSW,202,3.7,-999.0,81,-99.99,,,0.00,Acu-Link.com,2013-09-08 04:29:00,
2013-09-08 00:44:00,74.3,68.1,29.69,SW,225,4.2,-999.0,81,-99.99,,,0.00,Acu-Link.com,2013-09-08 04:44:00,
2013-09-08 01:00:00,74.3,68.4,29.71,West,270,2.2,-999.0,82,-99.99,,,0.00,Acu-Link.com,2013-09-08 05:00:00,
2013-09-08 01:15:00,73.4,68.6,29.71,WSW,247,3.2,-999.0,85,-99.99,,,0.00,Acu-Link.com,2013-09-08 05:15:00,
2013-09-08 01:30:00,73.2,68.8,29.71,SSW,202,2.7,-999.0,86,-99.99,,,0.00,Acu-Link.com,2013-09-08 05:30:00,
2013-09-08 01:46:00,73.4,68.9,29.72,SW,225,2.7,-999.0,86,-99.99,,,0.00,Acu-Link.com,2013-09-08 05:46:00,
2013-09-08 02:01:00,73.2,68.8,29.71,SW,225,3.2,-999.0,86,-99.99,,,0.00,Acu-Link.com,2013-09-08 06:01:00,
2013-09-08 02:16:00,72.7,68.9,29.71,SSW,202,1.7,-999.0,88,-99.99,,,0.00,Acu-Link.com,2013-09-08 06:16:00,
2013-09-08 02:31:00,72.1,69.0,29.71,South,180,1.7,-999.0,90,-99.99,,,0.00,Acu-Link.com,2013-09-08 06:31:00,
2013-09-08 02:47:00,71.6,69.1,29.70,SSW,202,2.2,-999.0,92,-99.99,,,0.00,Acu-Link.com,2013-09-08 06:47:00,
2013-09-08 03:02:00,71.6,69.1,29.70,SSW,202,2.2,-999.0,92,-99.99,,,0.00,Acu-Link.com,2013-09-08 07:02:00,
2013-09-08 03:17:00,71.6,69.5,29.70,SW,225,1.7,-999.0,93,-99.99,,,0.00,Acu-Link.com,2013-09-08 07:17:00,
2013-09-08 03:32:00,71.6,69.5,29.70,WSW,247,1.7,-999.0,93,-99.99,,,0.00,Acu-Link.com,2013-09-08 07:32:00,
2013-09-08 03:47:00,71.1,69.0,29.70,SW,225,2.2,-999.0,93,-99.99,,,0.00,Acu-Link.com,2013-09-08 07:47:00,
2013-09-08 04:03:00,71.1,69.3,29.69,West,270,3.7,-999.0,94,-99.99,,,0.00,Acu-Link.com,2013-09-08 08:03:00,
2013-09-08 04:18:00,70.9,69.1,29.69,South,180,2.7,-999.0,94,-99.99,,,0.00,Acu-Link.com,2013-09-08 08:18:00,
2013-09-08 04:33:00,70.5,68.7,29.70,SSW,202,2.2,-999.0,94,-99.99,,,0.00,Acu-Link.com,2013-09-08 08:33:00,
2013-09-08 04:48:00,70.2,68.7,29.69,WSW,247,3.2,-999.0,95,-99.99,,,0.00,Acu-Link.com,2013-09-08 08:48:00,
2013-09-08 05:03:00,69.8,68.6,29.69,WSW,247,3.2,-999.0,96,-99.99,,,0.00,Acu-Link.com,2013-09-08 09:03:00,
2013-09-08 05:19:00,69.3,68.7,29.69,West,270,1.1,-999.0,98,-99.99,,,0.00,Acu-Link.com,2013-09-08 09:19:00,
2013-09-08 05:34:00,68.9,68.3,29.70,WSW,247,0.0,-999.0,98,-99.99,,,0.00,Acu-Link.com,2013-09-08 09:34:00,
2013-09-08 05:49:00,68.4,68.1,29.69,SSW,202,2.7,-999.0,99,-99.99,,,0.00,Acu-Link.com,2013-09-08 09:49:00,
2013-09-08 06:04:00,68.4,68.1,29.69,SSW,202,1.7,-999.0,99,-99.99,,,0.00,Acu-Link.com,2013-09-08 10:04:00,
2013-09-08 06:20:00,67.8,67.5,29.69,SSE,157,0.0,-999.0,99,-99.99,,,0.00,Acu-Link.com,2013-09-08 10:20:00,
2013-09-08 06:35:00,66.9,66.6,29.70,SSE,157,0.0,-999.0,99,-99.99,,,0.00,Acu-Link.com,2013-09-08 10:35:00,
2013-09-08 06:50:00,66.6,66.3,29.70,East,90,0.0,-999.0,99,-99.99,,,0.00,Acu-Link.com,2013-09-08 10:50:00,
2013-09-08 07:05:00,66.2,65.9,29.71,NE,45,0.0,-999.0,99,-99.99,,,0.00,Acu-Link.com,2013-09-08 11:05:00,
2013-09-08 07:21:00,66.0,65.7,29.71,East,90,0.0,-999.0,99,-99.99,,,0.00,Acu-Link.com,2013-09-08 11:21:00,
2013-09-08 07:36:00,65.8,65.5,29.71,NE,45,1.7,-999.0,99,-99.99,,,0.00,Acu-Link.com,2013-09-08 11:36:00,
2013-09-08 07:51:00,66.6,66.3,29.71,NE,45,0.0,-999.0,99,-99.99,,,0.00,Acu-Link.com,2013-09-08 11:51:00,
2013-09-08 08:07:00,68.2,67.9,29.72,WSW,247,0.0,-999.0,99,-99.99,,,0.00,Acu-Link.com,2013-09-08 12:07:00,
2013-09-08 08:22:00,70.2,69.9,29.73,WSW,247,0.0,-999.0,99,-99.99,,,0.00,Acu-Link.com,2013-09-08 12:22:00,
2013-09-08 08:37:00,73.0,72.4,29.72,SSW,202,0.0,-999.0,98,-99.99,,,0.00,Acu-Link.com,2013-09-08 12:37:00,
2013-09-08 08:52:00,76.3,74.1,29.72,ESE,112,1.7,-999.0,93,-99.99,,,0.00,Acu-Link.com,2013-09-08 12:52:00,
2013-09-08 09:08:00,79.5,74.6,29.71,SE,135,1.7,-999.0,85,-99.99,,,0.00,Acu-Link.com,2013-09-08 13:08:00,
2013-09-08 09:23:00,76.6,73.8,29.72,East,90,2.2,-999.0,91,-99.99,,,0.00,Acu-Link.com,2013-09-08 13:23:00,
2013-09-08 09:38:00,79.2,74.6,29.72,SE,135,0.0,-999.0,86,-99.99,,,0.00,Acu-Link.com,2013-09-08 13:38:00,
2013-09-08 09:53:00,79.9,73.9,29.73,NNE,22,2.2,-999.0,82,-99.99,,,0.00,Acu-Link.com,2013-09-08 13:53:00,
2013-09-08 10:09:00,79.0,74.1,29.73,NNE,22,3.2,-999.0,85,-99.99,,,0.00,Acu-Link.com,2013-09-08 14:09:00,
2013-09-08 10:24:00,80.2,74.2,29.73,NNE,22,5.8,-999.0,82,-99.99,,,0.00,Acu-Link.com,2013-09-08 14:24:00,
2013-09-08 10:39:00,81.3,74.1,29.72,NNE,22,1.7,-999.0,79,-99.99,,,0.00,Acu-Link.com,2013-09-08 14:39:00,
2013-09-08 10:54:00,81.0,74.6,29.73,NNE,22,3.2,-999.0,81,-99.99,,,0.00,Acu-Link.com,2013-09-08 14:54:00,
2013-09-08 11:09:00,82.4,74.4,29.74,ESE,112,4.2,-999.0,77,-99.99,,,0.00,Acu-Link.com,2013-09-08 15:09:00,
2013-09-08 11:25:00,83.7,74.5,29.73,NE,45,5.3,-999.0,74,-99.99,,,0.00,Acu-Link.com,2013-09-08 15:25:00,
2013-09-08 11:40:00,83.7,74.1,29.73,ENE,67,4.2,-999.0,73,-99.99,,,0.00,Acu-Link.com,2013-09-08 15:40:00,
2013-09-08 11:55:00,85.6,74.2,29.73,ESE,112,4.2,-999.0,69,-99.99,,,0.00,Acu-Link.com,2013-09-08 15:55:00,
2013-09-08 12:11:00,85.8,74.0,29.73,NNE,22,4.7,-999.0,68,-99.99,,,0.00,Acu-Link.com,2013-09-08 16:11:00,
2013-09-08 12:26:00,86.2,72.1,29.73,East,90,1.1,-999.0,63,-99.99,,,0.00,Acu-Link.com,2013-09-08 16:26:00,
2013-09-08 12:41:00,87.6,71.5,29.73,ESE,112,2.7,-999.0,59,-99.99,,,0.00,Acu-Link.com,2013-09-08 16:41:00,
2013-09-08 12:56:00,88.0,71.3,29.72,SSW,202,4.2,-999.0,58,-99.99,,,0.00,Acu-Link.com,2013-09-08 16:56:00,
2013-09-08 13:12:00,88.3,71.1,29.71,West,270,4.2,-999.0,57,-99.99,,,0.00,Acu-Link.com,2013-09-08 17:12:00,
2013-09-08 13:27:00,87.8,70.6,29.72,NNE,22,1.1,-999.0,57,-99.99,,,0.00,Acu-Link.com,2013-09-08 17:27:00,
2013-09-08 13:42:00,88.9,71.7,29.72,ESE,112,3.7,-999.0,57,-99.99,,,0.00,Acu-Link.com,2013-09-08 17:42:00,
2013-09-08 13:57:00,89.4,71.6,29.72,SSW,202,3.2,-999.0,56,-99.99,,,0.00,Acu-Link.com,2013-09-08 17:57:00,
2013-09-08 14:12:00,88.3,70.6,29.72,South,180,3.2,-999.0,56,-99.99,,,0.00,Acu-Link.com,2013-09-08 18:12:00,
2013-09-08 14:28:00,88.0,70.3,29.72,SSE,157,2.2,-999.0,56,-99.99,,,0.00,Acu-Link.com,2013-09-08 18:28:00,
2013-09-08 14:43:00,87.3,70.7,29.71,NNE,22,4.7,-999.0,58,-99.99,,,0.00,Acu-Link.com,2013-09-08 18:43:00,
2013-09-08 14:58:00,87.4,70.3,29.71,ENE,67,1.7,-999.0,57,-99.99,,,0.00,Acu-Link.com,2013-09-08 18:58:00,
2013-09-08 15:14:00,87.4,69.7,29.71,NNW,337,5.3,-999.0,56,-99.99,,,0.00,Acu-Link.com,2013-09-08 19:14:00,
2013-09-08 15:29:00,88.0,70.3,29.70,NNE,22,3.7,-999.0,56,-99.99,,,0.00,Acu-Link.com,2013-09-08 19:29:00,
2013-09-08 15:44:00,87.4,69.7,29.70,North,0,2.2,-999.0,56,-99.99,,,0.00,Acu-Link.com,2013-09-08 19:44:00,
2013-09-08 15:59:00,88.7,70.4,29.69,NW,315,4.2,-999.0,55,-99.99,,,0.00,Acu-Link.com,2013-09-08 19:59:00,
2013-09-08 16:15:00,89.1,70.3,29.69,ESE,112,4.2,-999.0,54,-99.99,,,0.00,Acu-Link.com,2013-09-08 20:15:00,
2013-09-08 16:30:00,88.3,69.5,29.69,NE,45,3.7,-999.0,54,-99.99,,,0.00,Acu-Link.com,2013-09-08 20:30:00,
2013-09-08 16:45:00,87.3,69.7,29.69,NNE,22,3.7,-999.0,56,-99.99,,,0.00,Acu-Link.com,2013-09-08 20:45:00,
2013-09-08 17:01:00,86.5,70.9,29.68,North,0,4.7,-999.0,60,-99.99,,,0.00,Acu-Link.com,2013-09-08 21:01:00,
2013-09-08 17:16:00,86.7,71.1,29.68,NE,45,4.7,-999.0,60,-99.99,,,0.00,Acu-Link.com,2013-09-08 21:16:00,
2013-09-08 17:31:00,87.4,71.3,29.68,North,0,4.2,-999.0,59,-99.99,,,0.00,Acu-Link.com,2013-09-08 21:31:00,
2013-09-08 17:46:00,86.5,70.9,29.67,NE,45,4.7,-999.0,60,-99.99,,,0.00,Acu-Link.com,2013-09-08 21:46:00,
2013-09-08 18:01:00,86.9,71.3,29.67,NNE,22,4.2,-999.0,60,-99.99,,,0.00,Acu-Link.com,2013-09-08 22:01:00,
2013-09-08 18:16:00,87.1,71.5,29.67,NE,45,4.2,-999.0,60,-99.99,,,0.00,Acu-Link.com,2013-09-08 22:16:00,
2013-09-08 18:31:00,86.4,70.8,29.68,NE,45,3.2,-999.0,60,-99.99,,,0.00,Acu-Link.com,2013-09-08 22:31:00,
2013-09-08 18:46:00,85.6,71.1,29.68,ESE,112,3.7,-999.0,62,-99.99,,,0.00,Acu-Link.com,2013-09-08 22:46:00,
2013-09-08 19:01:00,82.2,71.8,29.68,NE,45,6.3,-999.0,71,-99.99,,,0.00,Acu-Link.com,2013-09-08 23:01:00,
2013-09-08 19:17:00,81.1,72.0,29.69,ESE,112,6.8,-999.0,74,-99.99,,,0.00,Acu-Link.com,2013-09-08 23:17:00,
2013-09-08 19:32:00,80.4,72.1,29.69,NE,45,3.7,-999.0,76,-99.99,,,0.00,Acu-Link.com,2013-09-08 23:32:00,
2013-09-08 19:47:00,79.7,71.8,29.70,ESE,112,8.3,-999.0,77,-99.99,,,0.00,Acu-Link.com,2013-09-08 23:47:00,
2013-09-08 20:02:00,79.0,71.9,29.69,ESE,112,6.8,-999.0,79,-99.99,,,0.00,Acu-Link.com,2013-09-09 00:02:00,
2013-09-08 20:17:00,77.9,71.2,29.71,NE,45,7.8,-999.0,80,-99.99,,,0.00,Acu-Link.com,2013-09-09 00:17:00,
2013-09-08 20:32:00,77.2,70.9,29.70,NNE,22,6.3,-999.0,81,-99.99,,,0.00,Acu-Link.com,2013-09-09 00:32:00,
2013-09-08 20:47:00,76.6,70.7,29.71,NE,45,4.7,-999.0,82,-99.99,,,0.00,Acu-Link.com,2013-09-09 00:47:00,
2013-09-08 21:02:00,75.9,70.4,29.71,ESE,112,8.3,-999.0,83,-99.99,,,0.00,Acu-Link.com,2013-09-09 01:02:00,
2013-09-08 21:18:00,75.4,70.6,29.71,SE,135,4.2,-999.0,85,-99.99,,,0.00,Acu-Link.com,2013-09-09 01:18:00,
2013-09-08 21:33:00,74.7,70.2,29.73,ESE,112,4.2,-999.0,86,-99.99,,,0.00,Acu-Link.com,2013-09-09 01:33:00,
2013-09-08 21:48:00,73.9,70.1,29.72,ENE,67,4.7,-999.0,88,-99.99,,,0.00,Acu-Link.com,2013-09-09 01:48:00,
2013-09-08 22:03:00,73.4,70.0,29.72,East,90,4.7,-999.0,89,-99.99,,,0.00,Acu-Link.com,2013-09-09 02:03:00,
2013-09-08 22:18:00,73.2,70.1,29.73,East,90,5.8,-999.0,90,-99.99,,,0.00,Acu-Link.com,2013-09-09 02:18:00,
2013-09-08 22:33:00,73.2,69.8,29.73,NE,45,5.3,-999.0,89,-99.99,,,0.00,Acu-Link.com,2013-09-09 02:33:00,
2013-09-08 22:49:00,72.9,69.5,29.74,ESE,112,6.8,-999.0,89,-99.99,,,0.00,Acu-Link.com,2013-09-09 02:49:00,
2013-09-08 23:04:00,72.7,69.3,29.74,ESE,112,5.3,-999.0,89,-99.99,,,0.00,Acu-Link.com,2013-09-09 03:04:00,
2013-09-08 23:19:00,72.1,69.0,29.74,SE,135,3.2,-999.0,90,-99.99,,,0.00,Acu-Link.com,2013-09-09 03:19:00,
2013-09-08 23:34:00,71.8,69.0,29.74,ESE,112,3.2,-999.0,91,-99.99,,,0.00,Acu-Link.com,2013-09-09 03:34:00,
2013-09-08 23:50:00,71.2,68.8,29.74,ESE,112,3.2,-999.0,92,-99.99,,,0.00,Acu-Link.com,2013-09-09 03:50:00,